{"data":{"norad_id":46459,"intl_designator":"2020-065F","name":"JILIN-1 GAOFEN 3G","alt_names":[],"object_type":"PAYLOAD","status":"ACTIVE","operator":null,"country":"PRC","launch_date":"2020-09-15","launch_site_code":"SEAL","launch_vehicle":null,"mission":null,"orbit_class":"UNKNOWN","rcs_meters":null,"size_class":null,"mass_kg":null,"dimensions":null,"purposes":[],"wikipedia_slug":null,"has_3d_model":false,"image_url":null,"decayed_at":null,"tle_current":{"epoch":"2026-05-25T04:33:03.485088Z","epoch_age_seconds":72840,"freshness":"FRESH","line1":"1 46459U 20065F   26145.18962367  .00080213  00000+0  74922-3 0  9991","line2":"2 46459  97.2307 201.2018 0012519 134.5463 225.6822 15.66947011316339","mean_motion":15.66947011,"eccentricity":0.0012519,"inclination_deg":97.2307,"raan_deg":201.2018,"arg_perigee_deg":134.5463,"mean_anomaly_deg":225.6822,"bstar":0.00074922,"rev_number":31633,"period_min":91.898449015262,"perigee_km":359.19993866045,"apogee_km":376.0900275898,"semimajor_km":6745.7819831251,"source":"CELESTRAK","updated_at":"2026-05-25T13:37:56.321393Z"}}}